Total_Precipitation_Accumulation
0.01 0.03 0.04 0.04 0.05 0.06 0.09 0.19 0.24 0.26 0.32 0.35 0.44 0.52 0.84 1.08 1.19 1.32 1.50 1.74 1.91 2.07 2.13 2.29 2.60 2.83 2.99 3.13 3.37 3.70 4.13 4.49 4.60 4.43 4.35 4.28 4.00 3.66 3.28 3.01 2.96 3.10 3.00 3.09
0.03 0.04 0.04 0.05 0.05 0.08 0.11 0.20 0.27 0.31 0.35 0.34 0.49 0.62 0.86 1.31 1.47 1.43 1.49 1.52 1.56 1.99 2.18 2.37 2.63 2.77 2.77 2.96 3.26 3.68 4.15 4.48 4.38 4.49 4.70 4.65 4.42 3.72 3.34 3.17 3.11 3.05 2.95 2.94
0.04 0.04 0.03 0.05 0.07 0.10 0.14 0.18 0.24 0.30 0.41 0.39 0.51 0.94 1.12 1.41 1.56 1.44 1.40 1.42 1.37 1.56 1.85 1.98 2.14 2.34 2.58 2.99 3.44 3.76 4.06 4.22 4.23 4.43 4.57 4.29 4.08 3.57 3.43 3.42 3.27 3.10 3.07 3.05
0.04 0.05 0.04 0.06 0.08 0.10 0.14 0.13 0.16 0.25 0.41 0.57 0.64 1.27 1.56 1.74 1.62 1.35 1.38 1.44 1.54 1.65 1.73 1.85 1.88 2.17 2.54 2.97 3.55 3.96 4.00 4.07 3.93 4.05 4.16 4.00 3.66 3.41 3.31 3.30 3.07 2.95 2.88 2.86
0.07 0.06 0.06 0.06 0.07 0.08 0.11 0.10 0.13 0.22 0.35 0.57 0.71 1.10 1.58 1.67 1.57 1.28 1.19 1.39 1.61 1.60 1.65 1.88 1.82 2.00 2.25 2.67 3.07 3.48 3.86 3.92 3.72 3.64 3.69 3.83 3.67 3.39 3.17 3.08 2.99 2.93 2.90 2.71
0.09 0.08 0.07 0.07 0.07 0.08 0.09 0.11 0.20 0.32 0.53 0.92 0.72 0.84 1.26 1.51 1.41 1.17 1.18 1.31 1.48 1.65 1.64 1.80 2.04 2.08 2.20 2.47 2.80 3.08 3.34 3.33 3.26 3.21 3.25 3.37 3.45 3.42 3.18 2.97 3.00 2.96 2.82 2.66
0.18 0.19 0.14 0.11 0.10 0.08 0.09 0.20 0.59 0.98 1.28 1.12 0.74 0.83 1.19 1.14 1.00 0.91 0.99 1.26 1.51 1.77 1.77 1.80 1.97 2.07 2.15 2.26 2.42 2.57 2.68 2.73 2.70 2.73 2.70 2.71 2.86 2.95 2.83 2.74 2.80 2.81 2.69 2.58
0.26 0.26 0.19 0.16 0.13 0.12 0.12 0.24 0.63 0.87 1.02 0.95 0.89 1.11 1.18 0.94 0.81 0.82 0.90 1.09 1.37 1.55 1.58 1.67 1.75 1.67 1.67 1.75 1.87 2.03 2.15 2.17 2.12 2.20 2.30 2.32 2.53 2.54 2.56 2.69 2.60 2.62 2.54 2.50
0.14 0.17 0.16 0.16 0.17 0.16 0.21 0.26 0.29 0.48 0.61 0.98 1.18 1.30 1.19 0.87 1.00 0.99 1.07 1.12 1.17 1.21 1.25 1.25 1.27 1.34 1.47 1.51 1.55 1.63 1.82 1.84 1.76 1.82 1.98 2.05 2.12 2.25 2.37 2.47 2.38 2.26 2.28 2.16
0.08 0.13 0.16 0.13 0.13 0.16 0.22 0.34 0.47 0.70 0.95 1.13 1.25 1.51 1.69 1.49 1.40 1.27 1.38 1.59 1.35 1.08 1.09 1.11 1.09 1.15 1.20 1.25 1.34 1.50 1.64 1.78 1.78 1.73 1.78 1.73 1.83 1.95 2.14 2.22 2.13 2.15 2.22 2.17
0.08 0.12 0.17 0.18 0.16 0.21 0.33 0.42 0.52 0.67 0.78 1.06 1.40 1.58 1.37 1.51 1.46 1.39 1.38 1.41 1.29 0.96 0.85 0.93 0.92 0.95 1.00 1.07 1.19 1.35 1.63 1.79 1.72 1.56 1.59 1.65 1.63 1.73 1.88 1.95 1.90 2.00 2.10 2.23
0.11 0.12 0.18 0.22 0.21 0.20 0.29 0.42 0.53 0.70 0.79 0.88 1.13 1.38 1.00 1.15 1.11 1.08 1.14 1.00 0.91 0.84 0.69 0.80 0.86 0.83 0.86 0.91 1.02 1.18 1.37 1.53 1.54 1.50 1.52 1.63 1.72 1.72 1.70 1.70 1.74 1.79 1.83 1.90
0.13 0.17 0.30 0.50 0.46 0.30 0.27 0.29 0.36 0.45 0.60 0.69 1.00 1.30 0.92 0.90 1.00 0.99 0.94 0.94 0.77 0.83 0.77 0.76 0.87 0.90 0.85 0.84 0.96 1.13 1.16 1.34 1.52 1.54 1.52 1.62 1.61 1.58 1.64 1.78 1.84 1.82 1.83 1.86
0.14 0.16 0.25 0.51 0.58 0.45 0.35 0.34 0.35 0.38 0.53 0.57 0.66 1.00 1.01 0.99 0.99 1.03 0.95 0.82 0.71 0.74 0.82 0.78 0.79 0.78 0.71 0.72 0.82 1.00 1.07 1.19 1.35 1.49 1.58 1.71 1.72 1.73 1.82 1.92 1.99 1.95 1.88 1.91
0.14 0.15 0.18 0.25 0.32 0.34 0.31 0.31 0.33 0.36 0.40 0.53 0.61 0.80 0.94 0.93 0.95 1.06 0.96 0.83 0.80 0.70 0.72 0.75 0.71 0.63 0.60 0.63 0.73 0.90 1.02 1.11 1.22 1.47 1.65 1.77 1.84 1.85 1.86 1.86 1.94 1.94 1.84 1.80
0.18 0.20 0.25 0.33 0.35 0.37 0.36 0.35 0.31 0.29 0.27 0.33 0.51 0.75 0.75 0.74 0.79 0.91 0.92 0.98 0.97 0.86 0.70 0.65 0.67 0.66 0.67 0.60 0.62 0.68 0.83 0.99 1.13 1.34 1.49 1.58 1.70 1.83 1.81 1.76 1.80 1.80 1.84 1.88
0.25 0.29 0.39 0.45 0.48 0.54 0.56 0.44 0.42 0.41 0.36 0.40 0.63 0.77 0.64 0.65 0.70 0.72 0.74 0.80 0.86 0.85 0.91 0.90 0.83 0.83 0.72 0.62 0.64 0.66 0.72 0.89 1.10 1.25 1.32 1.43 1.57 1.66 1.69 1.65 1.72 1.82 1.85 1.83
0.30 0.38 0.43 0.47 0.64 0.88 0.66 0.41 0.36 0.35 0.39 0.38 0.49 0.57 0.54 0.58 0.59 0.65 0.76 0.72 0.69 0.61 0.66 0.82 0.89 0.91 0.88 0.77 0.79 0.82 0.85 0.95 1.12 1.28 1.37 1.43 1.56 1.59 1.62 1.62 1.59 1.66 1.68 1.68
0.28 0.43 0.51 0.57 0.71 0.74 0.62 0.50 0.49 0.50 0.53 0.39 0.44 0.50 0.53 0.60 0.65 0.76 0.66 0.58 0.67 0.60 0.66 0.73 0.80 0.89 1.03 1.06 1.02 1.03 1.11 1.17 1.17 1.26 1.39 1.50 1.61 1.67 1.67 1.70 1.66 1.69 1.69 1.66
0.31 0.42 0.56 0.59 0.84 0.94 0.77 0.57 0.60 0.68 0.96 0.64 0.57 0.63 0.66 0.68 0.93 1.01 0.68 0.60 0.79 0.67 0.65 0.71 0.74 0.80 0.98 1.07 1.06 1.06 1.11 1.20 1.20 1.28 1.41 1.53 1.64 1.77 1.74 1.81 1.85 1.81 1.73 1.67
0.61 0.64 0.65 0.66 0.88 1.00 0.70 0.54 0.65 1.16 1.32 0.81 0.72 0.73 0.80 0.85 0.87 0.82 0.68 0.71 0.80 0.69 0.64 0.61 0.68 0.90 1.00 1.03 1.10 1.16 1.16 1.24 1.29 1.43 1.52 1.63 1.72 1.79 1.78 1.86 1.91 1.88 1.83 1.84
0.87 0.86 0.82 0.89 1.15 1.23 0.73 0.65 0.95 1.11 0.85 0.80 0.79 0.73 0.77 0.79 0.72 0.62 0.60 0.63 0.65 0.69 0.70 0.77 0.89 1.00 1.04 1.08 1.25 1.39 1.43 1.37 1.48 1.59 1.58 1.67 1.80 1.66 1.66 1.90 1.98 1.98 2.00 1.97
0.94 0.98 1.03 1.10 1.21 1.04 0.90 0.97 1.04 0.90 0.92 0.84 0.74 0.73 0.68 0.71 0.71 0.65 0.62 0.58 0.64 0.77 0.78 0.85 0.96 0.99 1.03 1.10 1.27 1.52 1.55 1.49 1.51 1.62 1.66 1.67 1.74 1.88 1.95 2.01 2.06 2.03 1.97 1.96
1.04 0.91 1.08 1.23 1.21 1.09 1.06 1.07 1.06 0.97 0.95 0.87 0.75 0.75 0.70 0.76 0.86 0.78 0.70 0.71 0.67 0.72 0.76 0.80 0.94 0.97 1.10 1.21 1.36 1.63 1.68 1.64 1.67 1.74 1.82 1.83 1.81 1.87 2.04 2.22 2.22 2.14 1.99 2.01
1.17 1.12 1.28 1.48 1.42 1.22 1.08 0.94 0.91 0.87 0.82 0.78 0.79 0.78 0.78 0.83 0.91 0.88 0.92 0.91 0.82 0.78 0.78 0.87 1.03 1.16 1.22 1.28 1.36 1.53 1.70 1.84 1.92 1.94 1.94 1.95 1.98 2.02 2.10 2.11 2.07 2.06 2.00 1.93
1.13 1.29 1.55 1.70 1.39 1.22 1.14 0.95 0.93 0.83 0.76 0.76 0.77 0.75 0.82 0.85 0.87 0.86 0.89 0.94 0.90 0.93 1.02 1.03 1.07 1.21 1.29 1.34 1.42 1.54 1.76 2.04 2.24 2.22 2.12 2.11 2.09 2.10 2.07 2.08 1.92 1.78 1.70 1.64